This demonstration page uses our WeatherBlox Daily Observations layout. Learn more.

Hourly Observations for May 3, 2015

Temp ( °F °C ) Dew Point ( °F °C ) Humidity (%) Winds ( mph kmh ) Pressure ( in mb ) Visibility ( mi km ) Precip ( " mm )
12:15 am 00:15 Clear 66 19 48 9 52 52 S 9 15 29.68 1005 10 16.09344 0 0
12:35 am 00:35 Clear 66 19 48 9 52 52 S 10 17 29.68 1005 10 16.09344 0 0
12:55 am 00:55 Clear 66 19 48 9 52 52 SSW 10 17 29.68 1005 10 16.09344 0 0
1:15 am 01:15 Clear 64 18 48 9 56 56 SSW 9 15 29.68 1005 10 16.09344 0 0
1:35 am 01:35 Clear 64 18 48 9 56 56 SSW 9 15 29.68 1005 10 16.09344 0 0
1:55 am 01:55 Clear 64 18 48 9 56 56 SW 10 17 29.68 1005 10 16.09344 0 0
2:15 am 02:15 Clear 64 18 48 9 56 56 SW 6 9 29.68 1005 10 16.09344 0 0
2:35 am 02:35 Clear 61 16 46 8 59 59 SW 6 9 29.71 1006 10 16.09344 0 0
2:55 am 02:55 Clear 61 16 48 9 63 63 SSW 6 9 29.71 1006 10 16.09344 0 0
3:15 am 03:15 Clear 59 15 48 9 68 68 WSW 3 6 29.71 1006 10 16.09344 0 0
3:35 am 03:35 Clear 59 15 46 8 63 63 Calm 29.71 1006 10 16.09344 0 0
3:55 am 03:55 Clear 61 16 46 8 59 59 Calm 29.71 1006 10 16.09344 0 0
4:15 am 04:15 Clear 59 15 46 8 63 63 WSW 6 9 29.74 1007 10 16.09344 0 0
4:35 am 04:35 Clear 61 16 45 7 55 55 WSW 8 13 29.74 1007 10 16.09344 0 0
4:55 am 04:55 Clear 61 16 45 7 55 55 W 9 15 29.74 1007 10 16.09344 0 0
5:15 am 05:15 Clear 59 15 45 7 59 59 W 3 6 29.71 1006 10 16.09344 0 0
5:35 am 05:35 Clear 61 16 45 7 55 55 WNW 6 9 29.71 1006 10 16.09344 0 0
5:55 am 05:55 Clear 57 14 45 7 63 63 NW 6 9 29.71 1006 10 16.09344 0 0
6:15 am 06:15 Clear 55 13 45 7 67 67 WNW 8 13 29.74 1007 10 16.09344 0 0
6:35 am 06:35 Sunny 57 14 43 6 59 59 W 8 13 29.71 1006 10 16.09344 0 0
6:55 am 06:55 Sunny 55 13 43 6 63 63 W 7 11 29.74 1007 10 16.09344 0 0
7:15 am 07:15 Sunny 57 14 45 7 63 63 W 3 6 29.71 1006 10 16.09344 0 0
7:35 am 07:35 Sunny 59 15 46 8 63 63 WSW 7 11 29.74 1007 10 16.09344 0 0
7:55 am 07:55 Sunny 64 18 45 7 49 49 WSW 8 13 29.71 1006 10 16.09344 0 0
8:15 am 08:15 Sunny 68 20 45 7 43 43 WSW 8 13 29.71 1006 10 16.09344 0 0
8:35 am 08:35 Sunny 68 20 45 7 43 43 SW 10 17 29.71 1006 10 16.09344 0 0
8:55 am 08:55 Sunny 70 21 45 7 40 40 SW 9 15 29.68 1005 10 16.09344 0 0
9:15 am 09:15 Sunny 72 22 45 7 38 38 WSW 13 20 29.68 1005 10 16.09344 0 0
9:35 am 09:35 Sunny 70 21 45 7 40 40 W 10 17 29.68 1005 10 16.09344 0 0
9:55 am 09:55 Sunny 72 22 45 7 38 38 W 7 11 29.68 1005 10 16.09344 0 0
10:15 am 10:15 Sunny 73 23 45 7 36 36 WSW 8 13 29.68 1005 10 16.09344 0 0
10:35 am 10:35 Sunny 75 24 45 7 34 34 W 9 15 29.68 1005 10 16.09344 0 0
10:55 am 10:55 Sunny 77 25 45 7 32 32 W 9 15 29.65 1004 10 16.09344 0 0
11:15 am 11:15 Sunny 77 25 45 7 32 32 W 8 13 29.65 1004 10 16.09344 0 0
11:35 am 11:35 Sunny 79 26 45 7 30 30 SW 8 13 29.65 1004 10 16.09344 0 0
11:55 am 11:55 Sunny 81 27 45 7 28 28 WSW 7 11 29.65 1004 10 16.09344 0 0
12:15 pm 12:15 Sunny 81 27 45 7 28 28 W 14 22 29.65 1004 10 16.09344 0 0
12:35 pm 12:35 Sunny 82 28 43 6 25 25 WSW 12 19 29.65 1004 10 16.09344 0 0
12:55 pm 12:55 Sunny 82 28 43 6 25 25 W 12 19 29.65 1004 10 16.09344 0 0
1:15 pm 13:15 Sunny 82 28 43 6 25 25 W 12 19 29.65 1004 10 16.09344 0 0
1:35 pm 13:35 Sunny 84 29 41 5 22 22 WSW 13 20 29.62 1003 10 16.09344 0 0
1:55 pm 13:55 Sunny 84 29 41 5 22 22 WSW 14 22 29.62 1003 10 16.09344 0 0
2:15 pm 14:15 Sunny 84 29 39 4 20 20 WSW 10 17 29.62 1003 10 16.09344 0 0
2:35 pm 14:35 Sunny 86 30 37 3 18 18 WSW 17 28 29.62 1003 10 16.09344 0 0
2:55 pm 14:55 Sunny 86 30 39 4 19 19 WSW 9 15 29.62 1003 10 16.09344 0 0
3:15 pm 15:15 Sunny 86 30 39 4 19 19 WSW 13 20 29.62 1003 10 16.09344 0 0
3:35 pm 15:35 Sunny 88 31 39 4 18 18 WSW 16 26 29.62 1003 10 16.09344 0 0
3:55 pm 15:55 Sunny 86 30 39 4 19 19 W 16 26 29.62 1003 10 16.09344 0 0
4:15 pm 16:15 Sunny 86 30 41 5 20 20 WSW 15 24 29.62 1003 10 16.09344 0 0
4:35 pm 16:35 Sunny 88 31 39 4 18 18 SW 6 9 29.59 1002 10 16.09344 0 0
4:55 pm 16:55 Partly Cloudy 88 31 37 3 17 17 WNW 12 19 29.59 1002 10 16.09344 0 0
5:15 pm 17:15 Partly Cloudy 88 31 39 4 18 18 W 12 19 29.59 1002 10 16.09344 0 0
5:35 pm 17:35 Partly Cloudy 88 31 37 3 17 17 W 12 19 29.62 1003 10 16.09344 0 0
5:55 pm 17:55 Sunny 86 30 39 4 19 19 WNW 7 11 29.62 1003 10 16.09344 0 0
6:15 pm 18:15 Sunny 86 30 36 2 17 17 NW 8 13 29.62 1003 10 16.09344 0 0
6:35 pm 18:35 Sunny 84 29 48 9 29 29 N 18 30 29.62 1003 10 16.09344 0 0
6:55 pm 18:55 Sunny 82 28 48 9 30 30 N 21 33 29.65 1004 10 16.09344 0 0
7:15 pm 19:15 Sunny 81 27 50 10 34 34 N 18 30 29.65 1004 10 16.09344 0 0
7:35 pm 19:35 Sunny 79 26 48 9 34 34 N 21 33 29.65 1004 10 16.09344 0 0
7:55 pm 19:55 Sunny 77 25 48 9 36 36 N 18 30 29.65 1004 10 16.09344 0 0
8:15 pm 20:15 Sunny 75 24 48 9 39 39 N 16 26 29.68 1005 10 16.09344 0 0
8:35 pm 20:35 Clear 73 23 48 9 41 41 N 13 20 29.71 1006 10 16.09344 0 0
8:55 pm 20:55 Clear 72 22 48 9 44 44 N 9 15 29.71 1006 10 16.09344 0 0
9:15 pm 21:15 Clear 70 21 48 9 46 46 N 9 15 29.74 1007 10 16.09344 0 0
9:35 pm 21:35 Clear 70 21 48 9 46 46 N 22 35 29.77 1008 10 16.09344 0 0
9:55 pm 21:55 Clear 68 20 46 8 46 46 NNE 24 39 29.8 1009 10 16.09344 0 0
10:15 pm 22:15 Clear 68 20 46 8 46 46 NNE 21 33 29.8 1009 10 16.09344 0 0
10:35 pm 22:35 Clear 66 19 46 8 49 49 NNE 18 30 29.83 1010 10 16.09344 0 0
10:55 pm 22:55 Clear 66 19 46 8 49 49 NNE 22 35 29.8 1009 10 16.09344 0 0
11:15 pm 23:15 Clear 66 19 45 7 46 46 NNE 23 37 29.8 1009 10 16.09344 0 0
11:35 pm 23:35 Partly Cloudy 64 18 45 7 49 49 N 17 28 29.85 1011 10 16.09344 0 0
11:55 pm 23:55 Partly Cloudy 63 17 43 6 49 49 NNE 17 28 29.85 1011 10 16.09344 0 0

Powered by AerisWeather